User: anonymous   Login
Location: Usti nad Labem
(50.6670°N, 14.0330°E)
Time: 05:56:38
(UTC+01:00)
Language:

ISS - Orbit

View from above orbital plane
View from above orbital plane
View from above satellite
View from above satellite

Ground track
Ground track

The orbit data is extracted from the following two-line orbital elements,

1 25544U 98067A   24060.93759946  .00018902  00000-0  34409-3 0  9997
2 25544  51.6415 131.8511 0006182 310.6147 221.3237 15.49509251441766
Epoch (UTC): 29 February 2024 22:30:08
Eccentricity: 0.0006182
inclination: 51.6415°
perigee height: 414 km
apogee height: 422 km
right ascension of ascending node: 131.8511°
argument of perigee: 310.6147°
revolutions per day: 15.49509251
mean anomaly at epoch: 221.3237°
orbit number at epoch: 44176

The dashed part of the orbit path shows where the satellite is in the earth's shadow,  

DLR